2023/02/12 00:00:00,34.3, 1.3
2023/02/12 00:10:00,34.3, 1.5
2023/02/12 00:20:00,34.4, 1.4
2023/02/12 00:30:00,34.4, 1.3
2023/02/12 00:40:00,34.4, 1.1
2023/02/12 00:50:00,34.4, 1.0
2023/02/12 01:00:00,34.3, 0.9
2023/02/12 01:10:00,34.3, 1.0
2023/02/12 01:20:00,34.3, 0.9
2023/02/12 01:30:00,34.3, 0.8
2023/02/12 01:40:00,34.3, 0.7
2023/02/12 01:50:00,34.3, 0.6
2023/02/12 02:00:00,34.3, 0.5
2023/02/12 02:10:00,34.3, 0.5
2023/02/12 02:20:00,34.3, 0.3
2023/02/12 02:30:00,34.3, 0.3
2023/02/12 02:40:00,34.2, 0.1
2023/02/12 02:50:00,34.2, 0.5
2023/02/12 03:00:00,34.2, 0.3
2023/02/12 03:10:00,34.2, 0.1
2023/02/12 03:20:00,34.2, 0.0
2023/02/12 03:30:00,34.2, 0.2
2023/02/12 03:40:00,34.2, 0.4
2023/02/12 03:50:00,34.2, 0.3
2023/02/12 04:00:00,34.3, 0.3
2023/02/12 04:10:00,34.2, 0.6
2023/02/12 04:20:00,34.2, 0.6
2023/02/12 04:30:00,34.2, 0.6
2023/02/12 04:40:00,34.2, 0.8
2023/02/12 04:50:00,34.2, 0.5
2023/02/12 05:00:00,34.2, 1.0
2023/02/12 05:10:00,34.2, 0.5
2023/02/12 05:20:00,34.3, 0.7
2023/02/12 05:30:00,34.2, 0.7
2023/02/12 05:40:00,34.3, 0.6
2023/02/12 05:50:00,34.2, 0.7
2023/02/12 06:00:00,34.3, 0.5
2023/02/12 06:10:00,34.4, 0.6
2023/02/12 06:20:00,34.3, 0.8
2023/02/12 06:30:00,34.3, 0.6
2023/02/12 06:40:00,34.3, 0.5
2023/02/12 06:50:00,34.3, 0.5
2023/02/12 07:00:00,34.3, 0.5
2023/02/12 07:10:00,34.2, 0.6
2023/02/12 07:20:00,34.2, 0.2
2023/02/12 07:30:00,34.2, 0.3
2023/02/12 07:40:00,34.1, 0.7
2023/02/12 07:50:00,34.1, 0.8
2023/02/12 08:00:00,34.1, 1.0
2023/02/12 08:10:00,34.1, 1.4
2023/02/12 08:20:00,34.0, 1.3
2023/02/12 08:30:00,34.0, 2.0
2023/02/12 08:40:00,34.0, 1.7
2023/02/12 08:50:00,33.9, 2.2
2023/02/12 09:00:00,33.9, 2.3
2023/02/12 09:10:00,34.0, 2.6
2023/02/12 09:20:00,33.9, 2.8
2023/02/12 09:30:00,33.8, 3.4
2023/02/12 09:40:00,33.8, 3.7
2023/02/12 09:50:00,33.8, 4.2
2023/02/12 10:00:00,34.0, 4.6
2023/02/12 10:10:00,34.1, 5.2
2023/02/12 10:20:00,33.6, 6.3
2023/02/12 10:30:00,33.0, 7.3
2023/02/12 10:40:00,32.8, 8.3
2023/02/12 10:50:00,32.7, 9.0
2023/02/12 11:00:00,32.3, 9.5
2023/02/12 11:10:00,31.9,10.7
2023/02/12 11:20:00,31.6,11.5
2023/02/12 11:30:00,31.5,13.4
2023/02/12 11:40:00,32.1,14.2
2023/02/12 11:50:00,32.6,15.6
2023/02/12 12:00:00,32.6,15.4
2023/02/12 12:10:00,32.3,13.9
2023/02/12 12:20:00,31.4,15.2
2023/02/12 12:30:00,31.9,12.9
2023/02/12 12:40:00,31.5,14.1
2023/02/12 12:50:00,30.6,15.1
2023/02/12 13:00:00,30.7,14.4
2023/02/12 13:10:00,32.0,13.5
2023/02/12 13:20:00,31.5,13.2
2023/02/12 13:30:00,31.5,13.0
2023/02/12 13:40:00,31.8,11.9
2023/02/12 13:50:00,31.7,12.5
2023/02/12 14:00:00,31.4,12.3
2023/02/12 14:10:00,30.9,14.1
2023/02/12 14:20:00,30.6,14.6
2023/02/12 14:30:00,30.9,14.1
2023/02/12 14:40:00,31.6,15.6
2023/02/12 14:50:00,31.8,14.9
2023/02/12 15:00:00,31.2,15.6
2023/02/12 15:10:00,31.2,16.3
2023/02/12 15:20:00,31.4,15.8
2023/02/12 15:30:00,31.5,14.8
2023/02/12 15:40:00,31.9,13.1
2023/02/12 15:50:00,32.0,13.2
2023/02/12 16:00:00,32.4,10.9
2023/02/12 16:10:00,32.5, 9.9
2023/02/12 16:20:00,32.0, 9.1
2023/02/12 16:30:00,32.2, 7.5
2023/02/12 16:40:00,32.0, 6.8
2023/02/12 16:50:00,31.9, 6.0
2023/02/12 17:00:00,31.9, 5.7
2023/02/12 17:10:00,31.9, 5.6
2023/02/12 17:20:00,31.9, 4.9
2023/02/12 17:30:00,32.0, 4.7
2023/02/12 17:40:00,32.1, 4.4
2023/02/12 17:50:00,32.0, 4.2
2023/02/12 18:00:00,32.0, 4.3
2023/02/12 18:10:00,32.0, 4.0
2023/02/12 18:20:00,32.0, 4.0
2023/02/12 18:30:00,32.0, 4.0
2023/02/12 18:40:00,32.0, 3.8
2023/02/12 18:50:00,32.0, 3.8
2023/02/12 19:00:00,31.9, 3.6
2023/02/12 19:10:00,31.9, 3.4
2023/02/12 19:20:00,31.9, 3.4
2023/02/12 19:30:00,31.9, 3.2
2023/02/12 19:40:00,31.9, 3.2
2023/02/12 19:50:00,31.8, 3.0
2023/02/12 20:00:00,31.9, 3.1
2023/02/12 20:10:00,31.9, 3.2
2023/02/12 20:20:00,31.8, 3.0
2023/02/12 20:30:00,31.8, 3.0
2023/02/12 20:40:00,31.8, 3.2
2023/02/12 20:50:00,31.8, 3.1
2023/02/12 21:00:00,31.8, 2.8
2023/02/12 21:10:00,31.9, 2.9
2023/02/12 21:20:00,31.9, 2.9
2023/02/12 21:30:00,31.8, 2.8
2023/02/12 21:40:00,31.8, 3.0
2023/02/12 21:50:00,31.8, 2.8
2023/02/12 22:00:00,31.8, 3.1
2023/02/12 22:10:00,31.8, 3.1
2023/02/12 22:20:00,31.8, 3.1
2023/02/12 22:30:00,31.8, 3.2
2023/02/12 22:40:00,31.8, 3.2
2023/02/12 22:50:00,31.8, 2.9
2023/02/12 23:00:00,31.8, 3.1
2023/02/12 23:10:00,31.9, 3.2
2023/02/12 23:20:00,31.9, 3.2
2023/02/12 23:30:00,31.9, 3.1
2023/02/12 23:40:00,32.0, 3.0
2023/02/12 23:50:00,32.0, 3.0
